Terminal Aerodrome Forecast
Issued by NWS Wilmington, OH

Current Version | Previous Version | Graphics & Text | Print | Product List | Glossary On
Versions: 1 2 3 4 5 6 7 8 9 10 11 12 13 14 15 16 17 18 19 20 21 22 23
500
FTUS41 KILN 231031 AAC
TAFDAY
TAF AMD
KDAY 231031Z 2311/2406 26003KT 6SM BR FEW250
     FM231300 26007KT P6SM FEW050 SCT250
     FM240100 00000KT P6SM SCT250=

USA.gov is the U.S. government's official web portal to all federal, state and local government web resources and services.